Regional Weather Roundup
Issued by NWS

Home | Current Version | Previous Version | Graphics & Text | Print | Product List | Glossary On
Versions: 1 2 3 4 5 6 7 8 9 10 11 12 13 14 15 16 17 18 19 20 21 22 23 24 25 26 27 28 29 30 31 32 33 34 35 36 37 38 39 40 41 42 43 44 45 46 47 48 49 50
432
ASUS43 KOAX 271402
RWRNE

WEATHER ROUNDUP FOR NEBRASKA
NATIONAL WEATHER SERVICE OMAHA NE
900 AM CDT THU APR 27 2017

NOTES: SATELLITE DATA IS BEING USED TO AUGMENT CLOUD COVER ABOVE
       12000 FEET.
       "FAIR" INDICATES FEW OR NO CLOUDS BELOW 12,000 FEET WITH NO
       SIGNIFICANT WEATHER AND/OR OBSTRUCTIONS TO VISIBILITY.

  * THESE STATIONS DO NOT REPORT WEATHER SUCH AS RAIN...SNOW OR FOG.

NEZ001>004-019>022-054>056-271500-
NEBRASKA PANHANDLE

CITY           SKY/WX    TMP DP  RH WIND       PRES   REMARKS
SCOTTSBLUFF    PTSUNNY   39  35  86 E14       29.58R WCI  31
ALLIANCE       SUNNY     36  31  82 SE12      29.60R WCI  28
CHADRON        CLOUDY    34  30  85 NE8       29.63R WCI  27
KIMBALL        CLOUDY    45  41  87 W5        29.59R
SIDNEY         MOSUNNY   38  35  89 E7        29.59R WCI  33
$$

NEZ057>060-069>072-079>082-271500-
SOUTHWEST NEBRASKA

CITY           SKY/WX    TMP DP  RH WIND       PRES   REMARKS
NORTH PLATTE   CLOUDY    41  33  73 E6        29.67S
IMPERIAL       CLOUDY    39  32  76 SE13      29.62F WCI  31
LEXINGTON      MOSUNNY   38  32  78 CALM      29.70S
MCCOOK         CLOUDY    38  33  82 E8        29.66F WCI  32
OGALLALA       PTSUNNY   38  32  78 E10       29.64S WCI  31
$$

NEZ005>010-023>029-035>040-094-271500-
NORTH CENTRAL NEBRASKA

CITY           SKY/WX    TMP DP  RH WIND       PRES   REMARKS
VALENTINE      SUNNY     34  27  75 CALM      29.69R
AINSWORTH      SUNNY     34  31  91 N5        29.69R WCI  29
BROKEN BOW     CLOUDY    40  31  70 N8        29.68S WCI  34
O`NEILL        CLOUDY    31  29  92 N9        29.72R WCI  23
ORD            SUNNY     37  30  75 N5        29.70R WCI  33
THEDFORD       MOSUNNY   37  32  83 NE3       29.68S
$$

NEZ041-046>049-061>064-073>077-083>087-271500-
SOUTH CENTRAL NEBRASKA

CITY           SKY/WX    TMP DP  RH WIND       PRES   REMARKS
GRAND ISLAND   SUNNY     38  32  79 NW6       29.72R WCI  33
AURORA         SUNNY     39  32  74 NW7       29.72R WCI  34
HASTINGS       MOSUNNY   42  32  67 N7        29.72S
HEBRON         SUNNY     40  31  71 CALM      29.74R
HOLDREGE       MOSUNNY   40  31  67 CALM      29.71R
KEARNEY *      CLOUDY    36  28  75 W5        29.72R WCI  32
YORK           SUNNY     39  32  75 N6        29.72S WCI  35
$$

NEZ011>018-030>034-042>045-271500-
NORTHEAST NEBRASKA

CITY           SKY/WX    TMP DP  RH WIND       PRES   REMARKS
NORFOLK        CLOUDY    34  28  79 N8        29.70R WCI  27
ALBION         SUNNY     36  31  81 N10       29.71S WCI  28
BLAIR          CLOUDY    37  31  79 NW8       29.71R WCI  31
FREMONT        CLOUDY    37  32  81 NW9       29.74R WCI  30
TEKAMAH        CLOUDY    37  28  70 NW18      29.73R WCI  27
WAYNE          CLOUDY    35  29  82 NW14      29.71S WCI  25
$$

NEZ050>053-065>068-078-088>093-271500-
SOUTHEAST NEBRASKA

CITY           SKY/WX    TMP DP  RH WIND       PRES   REMARKS
LINCOLN        SUNNY     41  30  65 N15       29.74S
OMAHA EPPLEY   CLOUDY    38  29  70 NW13      29.73R WCI  30
BEATRICE       SUNNY     41  32  70 N7        29.72F
FALLS CITY     MOSUNNY   44  33  65 NW13      29.72S
NEBRASKA CITY  CLOUDY    42  30  62 N9        29.72S
PLATTSMOUTH    CLOUDY    39  29  67 NW8       29.72S WCI  34
$$

NEZ044-045-051>053-067-271500-
OMAHA AREA

CITY           SKY/WX    TMP DP  RH WIND       PRES   REMARKS
OMAHA EPPLEY   CLOUDY    38  29  70 NW13      29.73R WCI  30
BLAIR          CLOUDY    37  31  79 NW8       29.71R WCI  31
FREMONT        CLOUDY    37  32  81 NW9       29.74R WCI  30
MILLARD        CLOUDY    40  33  74 NW8       29.73R
PLATTSMOUTH    CLOUDY    39  29  67 NW8       29.72S WCI  34
WAHOO          CLOUDY    38  31  77 NW9       29.73R WCI  31
$$




USA.gov is the U.S. government's official web portal to all federal, state and local government web resources and services.